{"data":{"norad_id":55419,"epoch":"2026-05-24T23:53:06.671904Z","epoch_age_seconds":82229,"freshness":"FRESH","line1":"1 55419U 23014AE  26144.99521611 -.00000179  00000+0 -72122-5 0  9992","line2":"2 55419  69.9992 251.9931 0003974 268.0719  91.9985 14.98333490182990","mean_motion":14.9833349,"eccentricity":0.0003974,"inclination_deg":69.9992,"raan_deg":251.9931,"arg_perigee_deg":268.0719,"mean_anomaly_deg":91.9985,"bstar":-7.2122e-6,"rev_number":18299,"period_min":96.106775268035,"perigee_km":569.28309606234,"apogee_km":574.80710079417,"semimajor_km":6950.1820984283,"source":"CELESTRAK","updated_at":"2026-05-25T13:38:17.797882Z"}}